Flag for China Weather past 2 weeks in Guangzhou, Guangdong, China

Now
57 °F

Overcast.


Feels Like: 57 °F
Forecast: 57 / 72 °F
Wind: 1 mph from North

Location: Canton Airport

Current Time: Dec 23, 2014 at 11:20:42 AM

Latest Report: Dec 23, 2014 at 11:00 AM


Visibility: 4 mi

Pressure: 30.21 "Hg

Humidity: 44%

Dew point: 36 °F

Location of GuangzhouLocation

Historic Weather in Guangzhou — Graph

°F

Guangzhou temperature yesterday

Maximum temperature yesterday: 64 °F (at 3:00 PM)
Minimum temperature yesterday: 46 °F (at 6:30 AM)
Average temperature yesterday: 53 °F

Past Weeks' High & Low Weather Summary

 TemperatureHumidityPressure
High75 °F (Dec 9, 3:00 PM)94% (Dec 19, 9:30 PM)30.48 "Hg (Dec 19, 9:30 PM)
Low43 °F (Dec 18, 6:30 AM)12% (Dec 17, 1:00 PM)30.04 "Hg (Dec 10, 2:30 PM)
Average57 °F49%30.24 "Hg
* Reported Dec 8 10:00 AM — Dec 23 10:00 AM, Guangzhou, Weather by CustomWeather, © 2014

Note: Actual official high and low records may vary slightly from our data, if they occured in-between our weather recording intervals... More about our weather records

Advertising

Guangzhou weather history for previous 24 hours

 ConditionsComfort  
Time TempWeatherWind HumidityBarometerVisibility
10:00 AM
Dec 23
55 °FPartly sunny.No wind47%30.24 "Hg5 mi
9:30 AM54 °FPartly sunny.3 mph51%30.21 "Hg5 mi
9:00 AM54 °FPartly sunny.1 mph51%30.21 "Hg5 mi
8:30 AM52 °FPartly sunny.No wind54%30.24 "Hg5 mi
8:00 AM52 °FPartly sunny.1 mph54%30.21 "Hg5 mi
7:30 AM52 °FPartly sunny.3 mph58%30.21 "Hg5 mi
7:00 AM52 °FPassing clouds.1 mph58%30.18 "Hg5 mi
6:30 AM52 °FClear.1 mph54%30.18 "Hg10 mi
5:30 AM52 °FPassing clouds.No wind58%30.18 "HgN/A
5:00 AM52 °FPassing clouds.3 mph54%30.18 "HgN/A
4:30 AM50 °FPassing clouds.1 mph62%30.18 "HgN/A
4:00 AM50 °FPassing clouds.3 mph67%30.18 "Hg5 mi
3:30 AM50 °FPassing clouds.3 mph58%30.18 "Hg5 mi
3:00 AM50 °FPassing clouds.No wind62%30.18 "Hg5 mi
2:30 AM50 °FPassing clouds.No wind62%30.18 "Hg5 mi
2:00 AM50 °FPassing clouds.No wind62%30.18 "Hg5 mi
1:30 AM50 °FPassing clouds.No wind62%30.18 "Hg5 mi
1:00 AM48 °FPassing clouds.1 mph66%30.18 "Hg5 mi
12:30 AM50 °FPassing clouds.1 mph62%30.21 "Hg5 mi
12:00 AM48 °FPassing clouds.3 mph71%30.21 "Hg4 mi
11:30 PM
Dec 22
46 °FClear.No wind76%30.21 "Hg4 mi
11:00 PM46 °FClear.1 mph71%30.21 "Hg5 mi
10:30 PM48 °FClear.3 mph66%30.21 "Hg5 mi
10:00 PM48 °FClear.1 mph66%30.21 "Hg5 mi
9:30 PM48 °FClear.No wind66%30.21 "Hg5 mi
9:00 PM50 °FClear.1 mph62%30.21 "Hg10 mi
8:30 PM50 °FClear.No wind58%30.21 "Hg10 mi
8:00 PM54 °FClear.No wind41%30.21 "Hg10 mi
7:30 PM57 °FPassing clouds.6 mph33%30.21 "HgN/A
7:00 PM57 °FClear.No wind44%30.21 "Hg10 mi
6:30 PM57 °FClear.No wind29%30.18 "Hg10 mi
6:00 PM59 °FClear.No wind25%30.18 "Hg10 mi
5:30 PM59 °FSunny.1 mph25%30.18 "Hg10 mi
5:00 PM61 °FSunny.1 mph23%30.18 "Hg10 mi
4:30 PM63 °FSunny.1 mph22%30.18 "Hg10 mi
4:00 PM63 °FSunny.1 mph20%30.18 "Hg10 mi
3:30 PM63 °FSunny.1 mph20%30.18 "Hg10 mi
3:00 PM64 °FSunny.1 mph19%30.21 "Hg10 mi
2:30 PM61 °FSunny.3 mph22%30.21 "Hg10 mi
2:00 PM61 °FSunny.3 mph22%30.21 "Hg10 mi
1:30 PM61 °FSunny.3 mph23%30.24 "Hg10 mi
1:00 PM59 °FSunny.1 mph23%30.27 "Hg10 mi
12:30 PM59 °FSunny.6 mph23%30.30 "Hg10 mi
11:30 AM57 °FPassing clouds.3 mph25%30.33 "HgN/A
Weather by CustomWeather, © 2014

See weather overviewHow to use our weather pages